Location: LDNL
(36.4545°S, 141.6685°E)
Time: 11:50:40
(UTC+10:00)

Explorer 7 - Pass Details

Date: 18 August 2022
Orbit: 482 x 668 km, 50.3° (Epoch: 26 September)

Event Time Altitude Azimuth Distance (km) Brightness Sun altitude
Rises 00:34:50 0° 245° (WSW) 2,870 - -66.8°
Reaches altitude 10° 00:37:41 10° 262° (W) 1,920 - -66.8°
Maximum altitude 00:40:51 20° 308° (NW) 1,356 - -66.8°
Drops below altitude 10° 00:43:52 10° 355° (N) 1,816 - -66.8°
Sets 00:46:29 0° 12° (NNE) 2,662 - -66.7°
